995 visiteurs
Prévisions de votre ville :
Vigilance : 31 départements Mise à jour le 19/12/2018 à 10:16 - Voir la carte

Paris Roissy CDG (95380) le 19/12/2018 à 14:00 Choisir station

9.9°C 79 % SSO Rafales 46 km/h
Vit. moyenne 24 kmh/h

Relevés météo quotidiens pour la station de :

UTC
S: Synop
M: Metar
Loc T°C
(°C)
Td
(°C)
HR
(%)
Vis
(km)
Néb
(octa)
Vent
(km/h)
Pression
(mb)
Précipitations
(mm)
Temps
              MOY
10 min
DIR RAF 1h MESURE VAR SUR 3h    
S 00 h 01h 8.3 8.3 100 3.4 /8 7 13 1023.7 -0.3/3h 0.0/6h - 0.0/3h
S 01 h 02h 7.5 7.5 100 7 /8 7 9 1024.0 -0.7/3h 0.0/1h
S 02 h 03h 7.9 7.9 100 6 /8 7 17 1023.3 -1.1/3h 0.2/1h
S 03 h 04h 7.6 7.6 100 8 /8 6 9 1023.3 -0.4/3h 0.2/3h
S 04 h 05h 7.2 7.2 100 9 8/8 6 15 1023.0 -1.0/3h 0.0/1h
S 05 h 06h 6.9 6.9 100 9 /8 4 7 1022.7 -0.6/3h 0.0/1h
S 06 h 07h 6.7 6.7 100 9 7/8 4 7 1022.9 -0.4/3h 0.2/12h - 0.0/3h - 0.2/24h
S 07 h 08h 6.0 6.0 100 7 /8 6 15 1022.7 -0.3/3h 0.0/1h
S 08 h 09h 9.0 9.0 100 6 /8 6 11 1023.1 +0.4/3h 0.0/1h
S 09 h 10h 11.9 11.9 100 20 /8 19 28 1023.1 +0.3/3h 0.0/3h
S 10 h 11h 14.1 12.0 87 21 /8 13 17 1023.2 +0.6/3h 0.0/1h
S 11 h 12h 15.9 12.1 78 40 /8 24 33 1022.7 -0.3/3h 0.0/1h
S 12 h 13h 17.4 12.1 71 19 /8 28 41 1022.0 -1.1/3h 0.0/6h - 0.0/3h
S 13 h 14h 18.1 10.0 59 20 /8 30 41 1021.9 -1.3/3h 0.0/1h
S 14 h 15h 18.0 10.1 60 45 /8 15 22 1022.2 -0.5/3h 0.0/1h
S 15 h 16h 17.1 10.9 67 40 /8 24 0 1022.4 +0.4/3h 0.0/1h
S 16 h 17h 13.9 11.8 87 55 /8 9 37 1022.8 +0.9/3h 0.0/1h
S 17 h 18h 12.3 12.3 100 35 /8 19 22 1023.2 +1.0/3h 0.0/1h
S 18 h 19h 10.3 10.3 100 45 /8 7 13 1023.3 +0.9/3h 0.0/12h - 0.0/3h
S 19 h 20h 11.7 11.7 100 29 /8 24 31 1023.6 +0.8/3h 0.0/1h
S 20 h 21h 11.9 11.9 100 40 /8 30 39 1023.5 +0.3/3h 0.0/1h
S 21 h 22h 11.2 11.2 100 40 /8 6 20 1024.0 +0.7/3h 0.0/3h
S 22 h 23h 11.1 11.1 100 40 /8 9 17 1023.7 +0.1/3h 0.0/1h
S 23 h 00h 10.8 10.8 100 45 /8 26 35 1023.6 +0.1/3h 0.0/1h
evolution des temperatures
cumul des precipitations
vent moyen et rafales
pression atmospherique

Un tiret (-) signifie que les données ne sont pas disponibles.

Passez la souris sur les pictos temps pour avoir plus de précisions. Passez les flèches sur l'icône de la direction du vent pour voir la direction précise en degrés.

Les données de l'heure en cours sont disponibles à partir de H+15 minutes.


S signifie station Synop, plus complète qu'une station Metar (M). Il y a +1h de différence entre l'heure UTC et l'heure légale en hiver et +2h en été.

Td est la mesure du point de rosée.

HR est l'humidité relative/p>

Vis est la visibilité

Néb est la nébulosité du ciel (couverture nuageuse) exprimée en octas (de 0/8 à 8/8).

Vent moy 10 min donne le vent moyen sur les 10 minutes qui précèdent le relevé.

Vent raf 1h donne la rafale maximale mesurée dans l'heure qui précède le relevé.


Les données les plus anciennes remontent à avril 2014.

Les données présentées sur cette page proviennent des stations météo officielles. Les relevés sont effectués aux normes en vigueur (anémomètre à 10m de haut, thermomètre sous abri normalisé à 2m du sol...)

Météo 60 décline toute responsabilité en cas d'absence de données, d'erreurs, de mauvaise utilisation ou interprétation et n'est pas habilité à fournir des certificats intempéries.